Theta_e
342 343 343 343 343 344 345 345 344 345 344 344 347 348 350 351 351 350 349 351 349 349 351 350 349 351 347 343 333 331 328 333 335 335 339 343 343 345 347 349 346 345 342
341 342 344 344 346 346 346 347 347 345 347 347 347 347 350 351 351 350 348 351 350 348 348 349 349 350 348 345 335 333 331 330 329 330 337 339 341 342 345 342 339 339 338
342 342 342 341 342 344 347 350 351 349 348 349 348 346 346 348 349 349 350 350 350 350 350 349 347 349 347 345 340 334 330 330 330 332 336 336 336 337 336 336 335 336 334
344 344 344 345 344 346 350 350 350 351 351 350 349 349 348 348 349 349 349 349 350 351 350 350 349 348 349 347 343 340 333 329 329 331 334 335 333 333 336 334 330 330 331
345 338 333 342 347 339 335 335 335 335 339 345 351 350 349 349 350 349 349 348 349 349 350 350 350 349 347 347 346 344 337 332 328 329 332 333 331 330 332 334 335 331 329
337 338 343 350 342 337 333 333 332 333 335 335 335 347 348 349 344 343 349 350 349 349 348 349 351 348 347 342 342 342 342 336 331 329 330 332 334 332 335 332 333 329 327
337 338 339 346 344 337 334 334 334 334 334 332 334 338 344 347 339 339 344 351 349 349 349 349 348 350 347 350 341 339 339 338 340 336 334 332 336 336 337 333 333 332 333
336 337 340 337 336 336 332 333 334 335 333 331 333 336 339 347 337 335 340 349 349 350 350 350 349 349 350 350 349 346 345 344 341 341 340 340 339 342 340 338 337 336 332
336 337 335 335 334 334 333 334 333 330 331 332 333 336 336 340 333 331 335 346 345 344 342 342 343 342 335 334 348 347 346 344 337 332 333 331 332 335 336 336 332 326 325
332 336 339 337 334 332 332 331 329 328 331 332 333 336 334 338 337 326 333 338 337 336 338 339 332 334 327 327 340 347 343 346 344 338 332 331 332 333 334 334 331 327 325
330 332 336 336 335 336 334 331 330 327 325 328 330 331 335 337 340 324 325 336 337 335 335 335 337 327 323 321 324 342 343 347 344 343 336 334 333 331 332 335 334 331 328
328 329 331 333 337 337 333 332 331 328 326 327 329 329 331 333 327 323 324 326 332 335 336 339 341 325 316 318 323 327 326 329 342 339 337 334 332 331 331 332 335 335 334
323 324 327 331 333 335 336 333 331 332 331 331 330 329 333 340 337 321 318 320 323 333 341 340 330 321 318 320 322 323 324 333 338 333 333 335 335 336 336 333 334 335 334
320 321 323 325 327 329 329 329 332 335 335 336 334 334 335 334 334 338 333 332 325 326 335 341 335 329 324 326 331 327 330 333 336 334 334 335 334 331 331 331 328 329 328
315 316 318 321 323 324 325 326 327 330 331 334 334 335 333 332 333 325 331 337 335 332 332 334 332 332 333 334 334 333 332 333 334 335 334 331 328 327 328 329 328 324 323
311 313 314 316 317 318 322 325 317 313 310 307 306 311 329 321 316 310 309 309 311 313 330 332 331 330 327 329 329 330 331 330 332 332 331 329 326 325 324 323 324 323 322
312 313 314 313 314 314 316 318 318 320 312 308 305 304 305 308 302 303 303 304 305 313 335 335 333 333 330 330 330 330 330 330 332 331 329 328 327 324 322 321 322 320 322
312 311 314 314 312 313 314 315 318 318 317 320 312 306 301 302 303 302 305 308 315 316 332 333 333 334 333 332 332 331 330 329 328 329 329 329 327 324 321 321 320 321 320
313 315 314 314 313 312 313 314 316 317 318 318 319 309 305 302 303 302 303 315 323 325 327 329 332 331 331 333 333 332 330 328 327 328 329 329 328 325 323 322 321 314 316
315 317 316 314 315 316 314 313 314 316 317 318 319 320 317 316 314 316 315 314 319 325 329 328 328 329 329 332 332 331 330 329 329 328 328 327 327 325 323 321 320 317 316
317 317 317 315 315 316 317 318 318 317 316 318 320 321 309 319 316 316 317 316 317 320 323 326 329 329 328 330 330 329 329 329 328 327 326 326 326 323 324 323 320 319 318
319 319 318 317 316 315 316 317 316 316 316 316 317 317 304 316 317 318 317 318 319 321 323 326 327 328 327 328 330 329 327 327 327 329 328 324 325 324 322 320 319 317 317
319 318 318 319 319 316 316 316 315 315 315 315 316 316 313 313 315 315 317 319 322 324 325 326 326 326 329 330 329 329 328 328 329 329 328 326 324 324 323 320 319 318 317
315 316 317 318 318 315 315 315 315 311 314 315 315 316 316 317 317 318 319 321 324 326 327 327 325 325 327 328 330 329 328 331 331 330 330 328 324 318 322 319 319 318 317
316 316 314 315 316 316 316 316 315 317 317 317 317 317 316 316 317 318 322 323 323 324 323 325 325 325 324 324 325 326 317 303 319 317 330 327 324 322 320 318 316 316 316
316 315 315 315 314 314 314 316 315 316 316 317 318 319 319 318 319 319 321 321 321 321 321 322 322 322 323 324 324 313 297 294 305 295 323 323 322 320 319 317 316 315 314
Wind_Speed
9 9 10 10 10 8 9 8 10 6 7 8 6 6 7 8 8 8 8 8 10 8 7 8 8 6 5 4 4 3 4 3 4 1 1 3 5 7 7 6 7 8 7
6 4 1 5 4 6 8 9 8 10 7 9 9 9 9 9 8 10 9 8 10 9 9 8 9 5 7 6 5 6 4 4 3 5 3 5 6 6 6 7 7 6 7
10 10 10 10 8 9 8 2 2 5 7 7 7 9 10 11 10 10 11 11 10 10 9 10 8 7 7 6 6 6 4 4 4 3 3 2 3 2 3 3 5 5 6
9 9 9 11 10 5 4 4 3 3 7 8 10 10 10 10 11 11 11 11 11 10 10 11 10 10 10 9 8 8 6 5 4 4 4 4 3 3 4 5 5 5 6
7 6 3 4 9 10 11 10 8 10 9 11 10 10 10 10 9 12 12 12 12 12 11 11 11 13 17 13 8 9 8 6 5 5 4 3 4 4 7 5 8 6 7
5 5 1 6 9 8 10 10 9 7 6 5 5 15 12 10 15 18 15 12 13 13 12 12 11 14 14 15 17 15 14 12 10 6 6 6 8 6 5 7 8 6 6
4 6 6 8 11 14 12 9 8 9 9 3 11 8 9 13 16 18 20 12 12 12 12 10 9 8 11 10 15 17 16 18 14 12 9 10 8 9 7 8 9 8 8
3 5 4 2 3 2 3 7 11 11 6 9 7 9 5 10 17 18 20 13 11 13 13 13 12 11 11 12 12 11 13 13 14 11 11 7 8 5 10 9 10 8 1
2 5 5 6 6 5 7 9 7 5 6 5 8 6 3 12 12 17 15 13 10 10 9 10 11 11 13 15 11 13 12 13 10 10 8 7 6 8 10 4 4 5 5
3 5 8 8 8 8 9 6 4 6 9 6 4 1 3 11 23 10 11 7 7 6 8 10 14 12 13 16 13 13 14 12 10 9 10 12 13 9 13 8 4 7 3
4 2 4 7 11 11 8 6 6 8 5 5 5 6 10 15 14 12 13 7 8 8 10 9 8 15 16 10 8 7 10 4 11 10 9 9 11 14 13 13 13 11 10
7 7 8 7 4 5 7 6 8 8 9 10 10 9 10 14 17 18 22 20 16 11 8 9 9 12 13 17 14 14 15 13 9 8 8 8 9 11 12 14 16 14 11
9 5 3 6 6 4 4 4 5 8 8 10 9 10 10 6 7 17 19 19 15 8 7 7 9 11 11 18 21 17 14 8 6 5 6 8 7 7 7 7 11 13 11
4 8 8 4 5 6 4 4 6 4 5 6 8 9 9 6 4 3 6 7 11 10 5 5 3 4 3 4 2 6 4 5 7 8 7 7 4 5 7 8 9 9 10
6 4 6 6 5 5 5 5 5 6 6 5 5 6 4 4 7 7 6 5 6 8 5 2 1 2 3 3 4 3 0 2 4 5 5 4 5 5 6 7 9 7 10
9 7 6 5 6 6 6 6 9 11 12 9 10 6 6 11 11 14 14 12 11 10 4 6 6 6 7 7 5 3 3 5 5 5 5 6 6 7 7 6 6 7 9
6 8 7 6 5 6 7 6 6 6 11 10 9 8 10 13 9 12 9 12 12 14 6 8 9 9 9 8 6 6 5 5 5 6 6 7 7 7 8 8 7 6 7
6 9 7 5 7 6 7 9 7 4 3 4 5 2 6 7 7 8 10 10 1 3 6 9 9 9 8 9 8 8 5 4 7 7 7 7 7 8 7 9 10 11 9
6 6 8 5 6 7 7 7 6 7 7 5 3 6 5 12 10 8 6 1 1 8 11 8 6 6 7 8 7 7 6 6 8 7 7 7 8 8 8 8 8 11 10
6 12 8 5 6 6 6 5 6 7 7 6 5 5 3 4 5 1 1 5 4 8 9 9 6 6 7 7 7 7 7 7 8 7 7 7 8 8 9 9 8 7 9
5 6 11 7 7 6 6 6 6 6 5 6 7 6 10 3 2 4 7 9 6 8 7 8 7 6 6 6 7 7 8 8 8 7 7 8 9 8 9 9 9 10 10
6 7 7 7 6 6 6 5 5 6 6 7 6 6 11 4 6 4 8 11 10 9 7 7 5 5 7 7 8 8 8 9 9 9 9 8 8 8 8 8 9 9 9
8 9 10 9 8 4 4 4 4 4 5 5 5 5 3 5 6 6 7 6 7 7 6 6 6 6 7 8 7 8 10 11 10 10 11 10 9 9 9 10 10 10 10
8 9 9 9 8 6 5 6 4 5 4 3 2 2 3 3 3 5 5 3 3 4 4 5 6 8 7 7 7 7 8 10 8 10 14 10 10 10 10 9 9 12 10
8 9 10 9 9 9 8 8 10 8 7 5 5 4 3 4 4 4 4 4 4 4 5 5 5 7 8 10 11 9 10 11 11 11 9 11 11 12 10 9 10 10 12
7 9 8 7 9 8 9 9 9 9 9 9 7 5 5 7 5 5 2 1 1 2 3 4 5 8 10 8 10 11 11 12 11 13 9 8 10 9 9 11 15 10 12
Wind_Direction
183 197 200 206 201 190 197 206 215 202 185 194 188 228 216 208 204 204 205 201 199 203 200 203 212 191 197 184 190 169 178 173 200 290 240 199 197 196 198 190 187 189 183
132 144 268 317 259 201 216 213 200 217 205 200 182 200 205 211 201 206 210 208 212 205 204 201 217 195 203 190 183 190 185 187 155 211 213 206 216 207 198 181 195 197 192
166 171 176 180 193 214 221 263 258 239 231 224 189 203 212 214 206 204 207 203 210 215 202 203 210 201 212 203 198 193 191 183 179 183 218 187 191 168 147 174 193 198 197
175 179 181 192 187 152 100 54 11 287 252 228 230 224 217 218 211 214 208 206 208 211 207 208 207 199 215 200 200 204 188 190 182 196 200 195 189 167 179 186 197 211 201
204 226 305 170 137 120 123 133 119 92 66 354 285 251 227 207 212 209 209 201 201 205 204 211 208 202 210 201 195 200 186 194 192 206 205 184 186 176 201 183 211 196 208
271 262 150 157 138 156 153 151 140 145 130 102 338 303 257 226 211 206 201 203 203 206 208 211 218 207 213 208 203 202 192 187 200 201 204 210 211 202 178 187 182 187 219
272 263 252 225 187 193 192 189 198 200 190 244 238 224 271 256 229 205 203 207 200 203 202 204 208 212 200 215 215 212 208 203 198 191 207 209 216 203 188 183 191 195 212
305 296 292 271 209 182 195 238 245 244 232 260 214 218 235 263 237 219 214 211 207 205 201 197 197 199 204 204 215 217 219 217 215 208 214 226 234 208 205 203 200 212 174
148 196 214 219 211 197 224 243 268 267 263 232 224 201 269 278 235 227 203 210 215 222 208 187 188 196 210 210 211 219 222 223 209 166 169 191 217 213 206 161 188 169 224
237 223 198 198 212 219 223 238 230 229 229 216 223 326 255 280 258 228 203 189 184 197 212 222 209 206 212 210 214 222 219 214 176 189 192 189 154 225 202 204 183 217 216
310 282 219 215 225 226 227 213 235 227 214 213 224 230 217 232 257 196 207 215 205 201 212 217 227 216 221 215 195 240 245 207 201 198 195 213 162 189 207 198 191 202 207
346 345 330 312 268 230 230 210 211 227 252 259 263 252 244 236 207 201 204 203 208 204 203 219 221 205 165 182 207 234 230 239 244 207 186 201 194 192 200 198 201 201 210
332 340 305 313 318 314 278 238 215 212 226 246 245 252 250 231 220 194 195 206 205 208 212 230 236 227 220 186 197 208 205 206 198 194 195 222 209 188 185 197 203 204 206
336 328 334 319 307 308 310 283 272 236 227 248 257 250 254 244 220 208 219 201 209 217 234 234 248 307 337 314 166 158 187 200 199 193 201 217 181 172 196 192 198 194 201
334 314 309 317 307 280 269 264 245 257 244 240 230 229 225 265 269 260 206 203 200 210 177 179 252 247 260 262 269 287 234 230 206 198 211 181 182 175 204 203 211 197 208
335 327 308 297 305 305 292 284 254 248 266 265 261 232 268 260 241 219 222 237 217 170 176 202 215 212 224 230 229 225 206 206 208 205 202 199 190 186 199 197 199 211 212
305 312 311 294 293 296 299 278 268 301 302 286 262 265 249 260 319 274 240 220 209 167 206 202 215 213 221 220 211 212 220 212 202 201 193 200 198 196 185 197 201 206 213
297 302 309 311 301 287 284 291 292 273 271 289 304 271 93 77 22 325 261 196 122 299 245 202 213 207 211 218 199 202 203 211 220 212 198 198 194 200 194 198 200 197 201
306 314 327 307 298 283 278 273 264 266 271 272 277 218 190 96 80 55 321 313 250 212 236 237 201 213 219 220 209 201 195 210 215 214 216 211 202 195 204 208 209 202 190
306 306 304 287 295 296 298 281 274 259 250 236 242 253 230 97 127 135 291 320 330 257 241 233 206 213 219 220 209 202 201 216 219 210 214 212 212 203 207 208 197 195 204
296 309 305 299 302 297 294 294 298 278 251 244 236 242 278 111 199 161 170 243 234 237 238 252 217 195 204 212 214 212 209 214 214 217 218 230 222 210 211 210 206 206 202
333 324 315 295 285 289 297 302 297 304 290 276 269 220 200 220 219 204 199 203 218 230 222 236 229 220 222 219 214 212 215 218 217 221 216 219 223 218 214 211 208 209 204
342 335 337 333 332 300 306 298 308 310 311 296 307 290 190 218 226 228 214 210 208 205 208 217 230 233 227 225 222 228 226 226 217 211 217 211 213 218 212 211 209 206 204
355 349 343 348 358 355 348 345 326 315 314 317 355 332 313 297 257 241 246 254 268 274 270 249 244 249 252 241 232 227 233 238 233 221 216 212 212 209 212 210 210 210 206
358 3 8 8 2 6 10 14 11 6 351 341 333 328 302 283 274 277 275 269 273 276 270 264 264 265 263 262 256 244 237 238 234 235 223 219 217 211 210 207 203 209 207
1 3 3 1 8 9 15 12 17 14 14 7 359 350 322 292 268 279 285 261 261 283 337 335 324 307 291 272 258 250 243 239 233 234 232 214 214 209 203 206 206 205 205